DW5995 Weather Reports


time (UTC)temp
F
wind
direction
speed
knots
gust
knots
rain 1hr
in
rain 24hr
in
rain mn
in
humidity
%
barometer
mb
20260507175041 65 297 0.0 0.9 0.00 0.06 0.06 68 1013.8
20260507174541 65 297 0.0 1.7 0.00 0.06 0.06 67 1013.8
20260507174040 66 296 0.0 1.7 0.00 0.06 0.06 66 1013.7
20260507173543 66 238 0.0 1.7 0.00 0.06 0.06 65 1013.6
20260507173055 67 34 0.0 2.6 0.00 0.06 0.06 65 1013.5
20260507172539 68 22 0.0 2.6 0.00 0.06 0.06 62 1013.4
20260507172040 68 123 0.0 0.0 0.00 0.06 0.06 63 1013.4
20260507171539 69 123 0.0 0.0 0.00 0.06 0.06 61 1013.3
20260507171040 69 123 0.0 0.9 0.00 0.06 0.06 61 1013.2
20260507170540 69 123 0.0 0.9 0.00 0.06 0.06 58 1013.2
20260507170049 70 130 0.0 0.9 0.00 0.06 0.06 58 1013.2
20260507165539 70 130 0.0 0.9 0.00 0.06 0.06 58 1013.3
20260507165039 69 130 0.0 0.0 0.00 0.06 0.06 62 1013.3
20260507164539 69 130 0.0 0.0 0.00 0.06 0.06 60 1013.3
20260507164039 68 130 0.0 0.9 0.00 0.06 0.06 58 1013.2
20260507163539 68 130 0.0 0.9 0.00 0.06 0.06 65 1013.2
20260507163038 67 130 0.0 0.9 0.00 0.06 0.06 69 1013.2
20260507162539 66 130 0.0 0.0 0.00 0.06 0.06 65 1013.1
20260507162038 66 130 0.0 0.0 0.00 0.06 0.06 68 1013.2
20260507161540 66 130 0.0 0.0 0.00 0.06 0.06 72 1013.2
20260507161037 66 130 0.0 0.0 0.00 0.06 0.06 72 1013.1
20260507160536 67 130 0.0 0.0 0.00 0.06 0.06 71 1013.1
20260507160037 67 130 0.0 0.0 0.00 0.06 0.06 69 1013.1
20260507155536 67 130 0.0 0.0 0.00 0.06 0.06 68 1013.1
20260507155040 67 130 0.0 0.0 0.00 0.06 0.06 67 1013.2
20260507154537 67 130 0.0 0.9 0.00 0.06 0.06 66 1013.1
20260507154036 67 130 0.0 1.7 0.00 0.06 0.06 64 1013.0
20260507153536 67 130 0.0 1.7 0.00 0.06 0.06 63 1013.1
20260507153037 67 130 0.0 1.7 0.00 0.06 0.06 67 1013.0
20260507152536 67 128 0.0 1.7 0.00 0.06 0.06 67 1013.0
20260507152036 67 128 0.0 0.9 0.00 0.06 0.06 67 1012.9
20260507151535 67 136 0.0 0.0 0.00 0.06 0.06 65 1012.9
20260507151036 67 136 0.0 0.9 0.00 0.06 0.06 64 1012.9
20260507150535 68 136 0.0 1.7 0.00 0.06 0.06 63 1012.8
20260507150036 68 136 0.0 1.7 0.00 0.06 0.06 55 1012.7
20260507145535 68 137 0.0 2.6 0.00 0.06 0.06 60 1012.7
20260507145035 67 135 0.0 1.7 0.00 0.06 0.06 58 1012.7
20260507144536 66 134 0.0 0.9 0.00 0.06 0.06 68 1012.8
20260507144035 65 134 0.0 1.7 0.00 0.06 0.06 73 1012.8
20260507143534 65 134 0.0 1.7 0.00 0.06 0.06 77 1012.9
20260507143034 64 134 0.0 0.9 0.00 0.06 0.06 75 1012.9
20260507142534 64 134 0.0 0.9 0.00 0.06 0.06 76 1012.9
20260507142033 64 134 0.0 3.5 0.00 0.06 0.06 77 1012.8
20260507141536 63 134 1.7 3.5 0.00 0.06 0.06 78 1012.8
20260507141034 62 30 0.0 4.3 0.00 0.06 0.06 76 1012.8
20260507140536 61 30 0.0 4.3 0.00 0.06 0.06 84 1012.8
20260507140036 61 86 0.0 2.6 0.00 0.06 0.06 85 1013.0
20260507135533 61 101 0.0 1.7 0.00 0.06 0.06 84 1013.1
20260507135034 61 106 0.0 0.9 0.00 0.06 0.06 82 1013.2
20260507134534 61 106 0.0 4.3 0.01 0.06 0.06 81 1013.2
20260507134035 61 117 0.0 2.6 0.01 0.06 0.06 82 1013.2
20260507133533 61 51 0.0 2.6 0.02 0.06 0.06 89 1013.4
20260507133042 61 45 0.0 2.6 0.02 0.06 0.06 88 1013.4
20260507132532 61 45 0.0 3.5 0.03 0.06 0.06 83 1013.4
20260507132033 62 82 0.0 1.7 0.03 0.06 0.06 86 1013.5
20260507131538 62 81 0.0 0.0 0.04 0.06 0.06 92 1013.6
20260507131032 62 81 0.0 0.9 0.04 0.06 0.06 92 1013.6
20260507130531 62 81 0.0 2.6 0.05 0.06 0.06 92 1013.6
20260507130036 62 81 0.0 4.3 0.05 0.06 0.06 91 1013.8
20260507125532 61 118 0.9 3.5 0.05 0.20 0.06 92 1013.9
20260507125032 61 274 0.0 1.7 0.05 0.20 0.06 93 1013.7
20260507124532 60 38 0.0 0.9 0.05 0.19 0.06 89 1013.5
20260507124031 60 38 0.0 0.9 0.05 0.19 0.06 88 1013.5
20260507123531 61 38 0.0 0.9 0.04 0.18 0.05 87 1013.5
20260507123033 61 38 0.0 0.9 0.03 0.17 0.04 86 1013.6
20260507122530 62 38 0.0 0.0 0.02 0.17 0.03 85 1013.6
20260507122029 62 38 0.0 2.6 0.02 0.16 0.02 84 1013.4
20260507121533 63 38 0.0 2.6 0.02 0.16 0.02 82 1013.4
20260507121030 64 42 0.0 2.6 0.02 0.16 0.02 81 1013.4
20260507120529 65 82 0.0 0.0 0.01 0.15 0.02 80 1013.5
20260507120030 65 82 0.0 0.0 0.01 0.15 0.02 78 1013.3
20260507115531 66 82 0.0 0.0 0.01 0.31 0.02 78 1013.2
20260507115028 66 82 0.0 1.7 0.01 0.31 0.02 73 1013.3
20260507114528 66 80 0.0 1.7 0.00 0.30 0.01 67 1013.5
20260507114030 66 19 0.0 2.6 0.00 0.30 0.01 64 1013.4
20260507113529 67 19 0.0 2.6 0.00 0.30 0.01 62 1013.4
20260507113028 67 89 0.0 2.6 0.00 0.30 0.01 62 1013.4
20260507112529 68 173 0.0 4.3 0.00 0.30 0.01 60 1013.4
20260507112028 69 141 0.9 3.5 0.00 0.30 0.01 60 1013.5
20260507111528 69 195 0.9 4.3 0.00 0.30 0.01 59 1013.4
20260507111027 70 118 0.0 4.3 0.00 0.30 0.01 57 1013.3
20260507110526 69 149 0.0 1.7 0.00 0.30 0.01 60 1013.3
20260507110025 69 145 0.0 4.3 0.00 0.30 0.01 59 1013.3
20260507105524 69 138 0.9 4.3 0.00 0.30 0.01 63 1013.5
20260507105023 69 140 0.9 5.2 0.00 0.30 0.01 65 1013.6
20260507104522 68 186 2.6 5.2 0.00 0.30 0.01 63 1013.6
20260507104022 68 176 0.9 5.2 0.00 0.30 0.01 65 1013.5
20260507103523 68 188 0.9 4.3 0.00 0.30 0.01 67 1013.6
20260507103020 68 184 0.9 4.3 0.00 0.30 0.01 66 1013.7
20260507102522 68 173 0.9 4.3 0.00 0.30 0.01 67 1013.7
20260507102019 67 173 0.9 5.2 0.00 0.30 0.01 66 1013.9
20260507101518 67 173 0.9 5.2 0.00 0.30 0.01 69 1013.9
20260507101020 67 133 0.0 5.2 0.00 0.30 0.01 70 1014.0
20260507100518 67 203 0.0 3.5 0.00 0.30 0.01 68 1014.0
20260507100018 67 151 0.0 3.5 0.00 0.30 0.01 66 1014.0
20260507095517 66 151 0.0 3.5 0.00 0.30 0.01 69 1014.0
20260507095017 67 155 0.0 5.2 0.00 0.30 0.01 67 1014.0
20260507094517 67 143 0.9 5.2 0.00 0.30 0.01 68 1014.0
20260507094016 67 117 0.0 3.5 0.00 0.30 0.01 70 1014.0
20260507093518 67 94 0.0 4.3 0.00 0.30 0.01 67 1013.8
20260507093017 67 90 0.0 4.3 0.00 0.30 0.01 72 1013.8
20260507092511 66 173 0.0 2.6 0.00 0.30 0.01 69 1013.9
20260507092011 66 162 0.0 3.5 0.00 0.30 0.01 72 1013.8
20260507091509 65 68 0.0 4.3 0.00 0.30 0.01 76 1013.9
20260507091008 64 164 1.7 4.3 0.00 0.30 0.01 74 1013.9
20260507090507 64 138 0.0 3.5 0.00 0.30 0.01 77 1013.9
20260507090007 63 184 0.0 1.7 0.00 0.30 0.01 76 1013.9
20260507085508 63 184 0.0 1.7 0.00 0.33 0.01 75 1013.9
20260507085010 64 184 0.0 0.9 0.00 0.33 0.01 77 1013.9
20260507084526 64 184 0.0 1.7 0.00 0.33 0.01 77 1013.8
20260507084007 64 184 0.0 1.7 0.00 0.33 0.01 75 1013.9
20260507083509 64 184 0.0 2.6 0.00 0.33 0.01 74 1013.8
20260507083006 64 184 0.0 2.6 0.00 0.33 0.01 76 1013.9
20260507082504 64 184 0.0 2.6 0.00 0.33 0.01 80 1013.8
20260507082003 64 150 0.0 2.6 0.00 0.33 0.01 81 1013.7
20260507081502 63 150 0.0 2.6 0.00 0.33 0.01 82 1013.8
20260507081002 62 221 0.0 0.9 0.00 0.33 0.01 84 1013.9
20260507080600 62 160 0.0 0.9 0.00 0.33 0.01 88 1013.9
20260507080058 61 159 0.0 0.9 0.00 0.33 0.01 87 1013.9
20260507075559 60 159 0.0 2.6 0.00 0.35 0.01 87 1013.9
20260507075059 60 159 0.0 2.6 0.00 0.35 0.01 88 1013.9
20260507074600 60 151 0.0 1.7 0.00 0.35 0.01 91 1013.9
20260507074053 59 151 0.0 1.7 0.00 0.35 0.01 90 1013.8
20260507073553 59 151 0.0 1.7 0.00 0.35 0.01 90 1013.7
20260507073053 59 151 0.0 1.7 0.00 0.35 0.01 91 1013.8
20260507072552 59 151 0.0 0.9 0.00 0.35 0.01 91 1013.7
20260507072055 59 151 0.0 2.6 0.00 0.35 0.01 91 1013.7
20260507071551 59 151 0.0 2.6 0.00 0.35 0.01 91 1013.6
20260507071051 59 137 0.0 2.6 0.00 0.35 0.01 92 1013.5
20260507070550 59 121 0.0 1.7 0.00 0.35 0.01 92 1013.5
20260507065548 59 121 0.0 2.6 0.00 0.69 0.01 95 1013.4
20260507065049 59 121 0.0 1.7 0.00 0.69 0.01 94 1013.4
20260507064553 59 121 0.0 0.9 0.00 0.69 0.01 96 1013.3
20260507064047 58 121 0.0 0.0 0.00 0.69 0.01 97 1013.2
20260507063545 58 121 0.0 0.0 0.00 0.69 0.01 100 1013.2
20260507063043 58 121 0.0 0.0 0.00 0.69 0.01 99 1013.3
20260507062545 57 121 0.0 0.0 0.00 0.69 0.01 99 1013.3
20260507062040 57 121 0.0 0.0 0.00 0.69 0.01 100 1013.3
20260507061538 56 121 0.0 0.0 0.00 0.69 0.01 100 1013.3
20260507061038 56 121 0.0 0.0 0.00 0.69 0.01 99 1013.3
20260507060536 55 121 0.0 0.0 0.00 0.69 0.01 100 1013.3
20260507060040 55 121 0.0 0.0 0.00 0.69 0.01 100 1013.3
20260507055534 55 121 0.0 0.0 0.00 0.90 0.01 100 1013.2
20260507055033 55 121 0.0 0.9 0.00 0.90 0.01 100 1013.2
20260507054545 55 178 0.0 0.0 0.00 0.90 0.01 100 1013.1
20260507054034 54 178 0.0 0.0 0.00 0.90 0.01 100 1013.1
20260507053530 53 178 0.0 0.0 0.00 0.90 0.01 100 1013.0
20260507053029 53 178 0.0 0.0 0.00 0.90 0.01 99 1012.9
20260507052508 53 178 0.0 0.0 0.00 0.90 0.01 99 1012.9
20260507052008 52 178 0.0 0.0 0.00 0.90 0.01 99 1012.9